Regional Weather Roundup
Issued by NWS

Home | Current Version | Previous Version | Text Only | Print | Product List | Glossary On
Versions: 1 2 3 4 5 6 7 8 9 10 11 12 13 14 15 16 17 18 19 20 21 22 23 24 25 26 27
000
ASUS46 KPQR 181610
RWROR

OREGON REGIONAL WEATHER ROUNDUP
NATIONAL WEATHER SERVICE PORTLAND OR
900 AM PDT FRI AUG 18 2017

NOTE: "FAIR" INDICATES FEW OR NO CLOUDS BELOW 12,000 FEET WITH
NO SIGNIFICANT WEATHER AND/OR OBSTRUCTIONS TO VISIBILITY.

ORZ001>013-181700-
NORTHWEST OREGON


CITY           SKY/WX    TMP DP  RH WIND       PRES   REMARKS
ASTORIA        CLOUDY    58  55  90 CALM      30.21R
NEWPORT        SUNNY     55  54  94 NW5       30.22R
PORTLAND       PTSUNNY   61  54  77 NW6       30.19S
VANCOUVER WA   MOSUNNY   61  54  77 VRB6      30.18S
SCAPPOOSE      SUNNY     63  52  67 N7        30.18R
HILLSBORO      SUNNY     61  53  75 CALM      30.18S
AURORA         SUNNY     64  52  64 NE6       30.19F
MCMINNVILLE    SUNNY     63  53  70 MISG      30.19S
SALEM          SUNNY     65  52  62 N9        30.17S
CORVALLIS      SUNNY     64  55  72 CALM      30.18R
EUGENE         SUNNY     63  56  78 NE8       30.18R
$$

ORZ021-028-181700-
SOUTHWEST OREGON


CITY           SKY/WX    TMP DP  RH WIND       PRES   REMARKS
NORTH BEND     SUNNY     58  53  84 CALM      30.17F
BROOKINGS      CLOUDY    61  54  77 W5        30.03R
ROSEBURG       SUNNY     64  49  57 CALM      30.16R
SEXTON SUMMIT  SUNNY     64  36  35 N10       30.21S HAZE
GRANTS PASS    FAIR      66  43  42 CALM      30.17S
MEDFORD        SUNNY     64  46  52 CALM      30.14S
$$

ORZ014>016-041-181700-
COLUMBIA GORGE


CITY           SKY/WX    TMP DP  RH WIND       PRES   REMARKS
TROUTDALE      CLOUDY    60  54  80 S3        30.19R
HOOD RIVER     SUNNY     66  52  59 S6        30.09F
THE DALLES     SUNNY     71  55  56 N12       30.05S
$$

ORZ029>031-041-044-049-050-061>064-502-503-505>511-181700-
EASTERN OREGON


CITY           SKY/WX    TMP DP  RH WIND       PRES   REMARKS
MADRAS         SUNNY     64  37  36 S6        30.17S
REDMOND        SUNNY     67  33  28 SE3       30.18S
BEND           SUNNY     66  45  45 S6        30.20S
PRINEVILLE     SUNNY     64  28  25 CALM      30.19S
KLAMATH FALLS  SUNNY     63  52  67 CALM      30.22R SMOKE
LAKEVIEW       SUNNY    N/A N/A N/A VRB3      30.25S
HERMISTON        N/A     73  46  38 W7        30.04S
PENDLETON      SUNNY     68  35  29 SE5       30.08S
JOHN DAY       SUNNY     64  33  31 CALM      30.19F
MEACHAM        SUNNY     67  34  29 CALM      30.16F
LA GRANDE      NOT AVBL
BAKER CITY     SUNNY     66  45  46 NW3       30.15F
BURNS          SUNNY     62  31  31 CALM      30.21F
ROME             N/A     73  29  19 NE3       30.18S
ONTARIO        SUNNY     72  42  34 SW6       30.10S
$$




USA.gov is the U.S. government's official web portal to all federal, state and local government web resources and services.